Weather in Shara

Russia / Republic of Dagestan     42°06′51″N   47°08′02″E
temp.,
°C
wind,
m/s
gust,
m/s
humid.,
%
clouds,
%
prec.,
mm/h
press.,
hPa
HPBL,
m
2 march, tue
tue200:00−15sw227619 0.1 102821
03:00−12sw119252 0.3 102825
06:00−15sw227620 0.0 102921
09:00−10ssw017546 0.0 1029151
12:00−7nne117333 0.0 1027611
15:00−7nne118567 0.1 1026398
18:00−12sw337940 0.1 102636
21:00−14sw435821 0.1 102633
3 march, wed
wed300:00−14sw54510 0.0 102436
03:00−13sw54520 0.0 102242
06:00−13sw54550 0.0 102040
09:00−8ssw44650 0.0 1019144
12:00−5wsw38540 0.0 10171297
15:00−5wsw211660 0.0 10161343
18:00−13sw33791 0.3 101943
21:00−15sw438119 1.0 102249
4 march, thu
thu400:00−16sw336868 0.1 102430
03:00−16sw226134 0.1 102525
06:00−16sw33551 0.0 102725
09:00−9sw11590 0.0 102870
12:00−5nnw11610 0.0 1027369
15:00−5wsw12680 0.0 1026343
18:00−11sw43620 0.0 102629
21:00−11sw43420 0.0 102627
5 march, fri
fri500:00−10sw3235100 0.0 102422
03:00−11sw323776 0.0 102221
06:00−10sw224876 0.0 102021
09:00−5wnw115788 0.0 102057
12:00−3nnw226048 0.0 1018331
15:00−3nnw237024 0.0 1018339
18:00−9sw22620 0.0 102021
21:00−10sw33320 0.0 102224
6 march, sat
sat600:00−9sw33270 0.0 102221
03:00−8sw43260 0.0 102121
06:00−7sw33240 0.0 102121
09:00−1sw22550 0.0 101926
12:00+1s22902 0.0 101791
15:000ssw33751 0.0 101571
18:00−7sw5441100 0.0 101534
21:00−7sw5442100 0.0 101441